Wind_Speed
15 9 10 12 14 33 15 20 30 38 30 25 28 39 37 36 35 34 34 33 32 32 32 33 33 35 36 36 37 38 40 41 43 46 50 48 46 48 49 48 48 48 41 38 37
24 26 23 19 16 24 20 28 45 40 34 30 23 27 33 31 30 30 29 29 29 30 31 30 31 35 37 37 36 37 40 44 47 46 47 50 48 51 50 50 51 50 47 43 40
45 42 39 39 37 21 21 28 45 42 30 20 16 15 21 25 26 26 27 30 32 30 30 32 35 38 39 41 43 43 45 45 46 48 48 51 52 52 53 51 54 52 51 48 48
43 46 55 49 43 37 41 34 35 33 18 10 6 5 4 7 8 7 8 12 15 20 24 28 31 37 42 42 42 44 46 47 47 48 49 50 52 52 52 52 53 55 54 53 54
49 54 49 49 49 52 44 41 37 26 22 17 17 18 18 14 10 3 4 10 15 20 23 28 33 37 39 40 43 46 46 46 46 47 49 50 51 53 52 53 51 52 54 55 55
45 55 54 49 61 55 54 46 37 31 34 33 29 25 21 16 11 5 2 7 13 17 22 27 32 37 40 42 43 45 47 48 50 52 53 54 50 53 50 53 53 54 56 58 61
54 56 59 61 61 59 58 54 48 42 38 35 31 27 23 19 18 16 14 11 15 21 26 30 34 38 42 44 46 48 49 50 52 54 53 52 51 53 52 54 54 55 56 55 57
57 57 58 58 58 58 56 52 46 41 37 33 32 32 28 24 20 18 18 21 28 30 31 33 36 41 45 47 50 50 50 49 53 52 52 51 47 49 47 49 47 46 46 46 47
61 62 60 56 53 52 51 52 49 46 42 38 34 33 31 29 29 30 30 27 32 42 42 36 31 35 39 43 45 47 47 47 47 48 46 44 42 43 37 38 38 36 33 33 34
67 66 65 63 61 58 55 51 47 46 44 41 37 31 29 25 21 17 18 23 31 42 36 29 26 26 28 31 35 42 45 46 42 41 42 38 35 34 34 32 32 32 31 31 25
59 59 57 56 55 54 51 47 45 42 39 34 31 27 23 21 19 20 22 27 30 33 29 25 22 26 30 31 31 33 35 40 39 36 36 34 33 31 32 33 31 29 28 29 26
49 49 47 45 46 46 44 38 38 35 30 30 28 26 24 24 24 25 28 31 34 30 21 17 20 24 26 25 23 27 31 32 37 37 32 27 29 29 28 26 26 27 24 30 32
39 38 38 37 34 34 34 31 31 29 26 24 22 22 22 23 25 28 31 35 38 36 26 15 21 24 23 23 19 15 18 22 30 31 24 24 23 23 19 19 22 24 29 34 37
33 32 32 31 29 28 26 25 23 22 21 20 19 19 20 22 25 30 35 38 40 42 36 21 21 23 25 19 13 11 6 9 18 26 27 22 21 19 19 21 23 24 28 29 27
29 29 28 27 25 23 22 21 19 18 20 19 18 18 20 22 25 29 34 39 43 45 44 37 26 26 26 27 28 13 4 5 9 21 22 17 14 13 14 17 14 15 16 16 20
24 24 25 25 25 24 22 21 21 19 19 19 20 20 20 21 25 29 32 37 42 45 48 44 36 31 29 26 23 28 26 14 12 16 17 14 9 7 8 8 11 10 11 17 17
19 20 21 22 22 23 23 23 21 21 21 22 22 23 24 24 25 27 31 35 40 42 45 48 46 37 32 28 26 23 25 21 16 10 10 12 9 6 6 9 8 7 9 9 10
18 18 18 17 18 20 21 22 23 24 23 23 23 24 25 25 26 27 28 30 35 39 42 44 45 47 44 32 28 25 22 20 15 9 6 3 3 4 7 9 6 5 5 12 13
17 18 18 18 17 18 19 21 21 22 24 25 26 26 25 26 27 27 28 29 30 33 35 38 40 42 43 43 38 31 22 19 15 11 5 1 3 6 7 6 8 6 8 11 12
17 17 17 19 20 20 20 21 22 23 24 25 26 27 28 29 29 28 28 28 28 28 30 32 35 35 36 38 39 39 38 30 21 12 7 4 1 2 4 6 9 10 13 11 8
17 17 17 17 18 19 20 21 21 21 22 24 25 26 27 28 29 30 29 28 27 26 26 26 29 30 31 32 33 32 33 32 29 30 31 24 11 13 11 11 11 12 10 6 3
18 20 19 16 17 17 18 17 19 19 21 22 23 26 26 26 27 28 29 29 28 26 24 24 23 24 26 27 28 29 28 26 26 26 27 26 28 28 15 22 18 14 11 7 3
22 22 24 22 20 19 19 19 19 18 19 20 21 22 23 26 26 26 27 29 29 25 24 23 22 21 20 22 24 24 25 26 26 26 28 30 30 34 29 14 27 21 15 9 7
30 25 25 26 26 25 21 21 21 21 20 18 18 19 21 22 25 25 24 25 25 26 24 22 22 21 21 19 19 20 21 21 22 24 27 29 33 39 45 24 13 24 16 12 9
31 29 29 27 28 28 26 26 22 20 22 21 19 17 17 18 19 21 23 22 22 23 23 21 19 21 20 20 19 18 18 18 18 19 22 26 30 34 39 41 12 12 10 12 11
35 32 30 30 30 29 29 28 29 26 24 22 23 20 18 17 18 18 18 19 21 21 23 22 20 16 19 19 18 18 17 17 18 17 18 20 23 27 29 30 36 8 10 13 16
40 38 37 31 31 34 32 33 30 30 27 29 26 23 24 20 19 19 18 17 18 21 22 23 22 20 15 17 18 18 19 19 18 19 18 17 16 18 21 23 25 22 29 19 12
Wind_Direction
62 93 137 149 157 180 136 148 165 160 159 178 201 211 216 220 225 230 236 239 242 246 247 248 249 251 249 248 246 246 247 247 245 247 251 250 248 250 250 251 250 250 252 253 254
66 80 88 120 102 161 118 127 144 164 177 186 190 205 211 218 225 232 238 243 246 246 246 246 251 254 251 250 249 249 250 249 251 252 251 252 249 251 251 251 248 248 247 249 254
83 84 88 96 109 89 108 128 152 151 169 195 211 216 218 221 228 236 244 250 251 254 256 255 255 250 249 250 251 250 248 249 248 248 246 249 250 250 252 253 251 249 248 250 253
88 101 99 92 100 111 108 111 139 166 157 144 164 189 214 223 230 242 238 241 246 248 248 251 253 252 254 254 251 247 247 245 245 245 247 247 250 251 251 250 252 251 251 253 256
88 100 100 85 95 95 90 104 120 113 100 94 102 105 102 101 102 115 239 260 260 258 256 255 255 255 254 251 246 248 247 249 247 247 247 247 248 249 251 252 252 254 255 257 261
88 91 84 95 91 88 96 95 103 105 106 106 104 106 101 94 89 80 335 287 283 278 271 265 259 256 254 250 248 247 246 246 247 248 249 247 250 250 251 252 254 256 259 262 264
84 90 92 93 96 96 97 98 99 103 105 106 104 101 93 87 74 59 37 359 322 297 281 271 264 260 256 256 254 253 253 253 254 250 250 249 249 250 253 254 255 260 265 269 270
76 80 84 87 92 99 102 106 109 109 105 100 97 90 84 75 62 41 20 355 336 309 297 290 279 270 267 265 264 264 261 258 256 256 255 255 254 254 256 257 262 264 267 271 273
76 79 82 85 88 91 92 95 94 93 90 88 84 73 63 52 44 34 23 2 342 305 309 304 288 278 272 267 266 264 262 259 257 257 257 256 255 258 255 256 257 260 262 268 272
78 80 81 83 84 83 81 80 79 78 75 72 70 69 63 55 44 26 5 351 337 317 322 317 309 297 283 276 266 261 259 258 258 257 255 252 251 252 254 254 257 256 258 262 261
77 79 80 80 81 81 82 81 79 76 76 74 71 68 58 45 29 17 7 3 355 337 331 323 309 302 294 282 268 260 256 252 248 248 251 250 248 249 253 255 251 250 249 249 261
71 77 80 80 80 81 81 79 76 74 73 70 65 59 50 39 30 20 14 14 13 4 349 332 325 323 315 304 282 267 258 251 240 235 243 245 242 243 249 256 253 246 249 253 254
63 65 68 73 71 71 73 76 75 75 70 63 55 47 39 31 25 22 18 18 21 20 12 351 345 343 336 315 301 284 250 246 240 229 223 238 233 235 250 257 254 253 258 262 267
56 58 58 59 61 62 63 63 61 60 61 60 51 41 33 30 24 22 20 19 22 25 25 14 6 3 7 1 333 289 272 258 240 220 206 218 228 232 251 265 267 270 273 272 272
49 46 47 44 47 49 48 46 48 44 43 37 33 31 29 24 23 22 23 23 22 24 28 29 23 20 21 31 40 41 335 275 214 204 193 205 228 239 252 261 273 273 273 276 280
37 39 41 40 37 35 35 39 36 29 27 23 21 19 18 19 20 20 21 22 26 26 27 30 33 30 31 35 42 55 57 65 126 168 181 180 212 231 251 272 291 283 299 306 294
25 29 32 34 32 30 29 26 25 26 24 16 14 12 12 11 15 19 19 20 25 27 30 30 35 39 38 39 45 58 69 74 93 133 156 176 199 230 270 296 281 310 342 315 313
356 2 7 15 20 19 19 19 15 15 13 14 12 9 9 11 10 13 18 20 22 26 28 32 33 38 43 43 45 52 65 82 92 94 119 145 223 249 279 281 256 289 305 4 356
330 337 340 345 350 355 358 0 3 4 2 3 4 4 6 8 10 12 11 17 20 23 27 29 33 38 40 44 47 48 53 62 78 85 91 183 253 265 277 254 250 273 279 333 4
335 332 331 333 333 334 339 342 345 348 349 350 352 354 356 358 1 7 10 12 16 19 21 25 29 31 38 41 44 50 52 54 50 41 35 16 330 257 280 271 266 268 277 304 355
328 337 339 341 343 343 343 346 345 346 347 345 343 344 347 350 352 353 360 6 11 12 16 19 22 26 29 34 39 43 48 50 49 47 48 37 1 282 263 259 261 254 272 273 334
323 324 332 339 341 345 345 348 352 352 354 355 357 353 350 348 347 347 349 355 1 6 9 12 14 16 21 24 29 33 35 37 40 39 37 33 24 21 281 242 238 243 243 235 268
329 324 324 326 330 334 341 343 346 349 351 358 359 1 355 351 354 351 349 348 349 354 358 3 7 8 9 13 15 19 23 24 25 29 30 28 26 20 5 297 231 220 219 218 235
318 319 320 324 325 328 328 328 334 338 339 345 352 355 358 360 355 352 351 349 349 346 348 349 353 0 1 1 358 3 8 12 15 18 21 23 24 23 20 9 235 208 212 211 222
305 311 315 313 314 320 325 325 327 331 332 334 336 344 348 349 353 354 351 347 345 348 344 341 342 344 350 353 350 344 347 357 2 6 11 13 20 27 28 31 58 195 226 245 235
295 296 300 306 308 309 311 315 321 325 327 325 329 329 335 339 343 346 349 346 344 345 346 343 336 336 332 336 341 338 336 333 338 346 354 4 11 22 29 38 47 33 268 263 271
287 290 291 296 300 303 308 308 309 313 318 319 320 323 323 323 326 332 333 334 332 334 338 340 342 338 331 330 328 327 326 328 324 324 333 345 356 12 20 28 39 46 47 40 269
Height
5560 5563 5569 5582 5595 5605 5614 5621 5635 5654 5664 5675 5683 5695 5704 5712 5719 5724 5729 5733 5736 5740 5742 5744 5746 5748 5749 5750 5751 5752 5755 5757 5758 5760 5761 5768 5770 5772 5774 5776 5778 5779 5784 5786 5790
5567 5570 5578 5588 5598 5613 5619 5628 5640 5654 5667 5677 5686 5696 5705 5712 5718 5723 5728 5731 5734 5736 5738 5738 5740 5742 5743 5743 5744 5744 5747 5747 5749 5754 5755 5758 5760 5762 5766 5767 5768 5771 5775 5780 5783
5575 5581 5588 5595 5608 5622 5625 5635 5647 5659 5672 5683 5692 5701 5708 5713 5719 5723 5727 5729 5731 5732 5732 5732 5732 5733 5735 5735 5736 5736 5736 5739 5740 5742 5744 5746 5749 5752 5755 5759 5758 5763 5766 5769 5773
5588 5589 5598 5606 5619 5624 5630 5641 5656 5669 5680 5689 5698 5704 5710 5715 5722 5723 5725 5726 5727 5726 5726 5725 5725 5726 5726 5726 5726 5726 5726 5727 5728 5732 5732 5736 5738 5742 5745 5748 5749 5752 5755 5758 5760
5610 5609 5610 5616 5623 5627 5638 5651 5666 5682 5689 5697 5703 5709 5712 5717 5720 5722 5723 5723 5723 5722 5721 5719 5718 5717 5716 5716 5716 5716 5718 5718 5719 5720 5723 5725 5728 5730 5736 5735 5740 5742 5745 5747 5750
5628 5627 5627 5632 5636 5644 5653 5664 5677 5689 5696 5702 5707 5712 5715 5720 5723 5724 5725 5724 5723 5721 5718 5714 5711 5708 5707 5706 5706 5707 5706 5706 5708 5709 5711 5715 5719 5720 5724 5725 5729 5731 5734 5737 5739
5647 5649 5650 5648 5651 5659 5668 5678 5687 5695 5702 5708 5713 5715 5718 5723 5725 5726 5725 5724 5721 5716 5712 5707 5703 5700 5698 5696 5696 5695 5696 5696 5696 5697 5700 5704 5709 5709 5711 5715 5719 5721 5724 5725 5726
5672 5672 5672 5674 5677 5679 5682 5689 5696 5703 5708 5713 5718 5721 5724 5726 5726 5726 5723 5722 5715 5707 5703 5699 5695 5691 5688 5685 5683 5683 5684 5684 5683 5687 5689 5693 5698 5699 5701 5704 5707 5710 5712 5713 5714
5697 5695 5694 5695 5697 5700 5704 5706 5709 5713 5717 5721 5723 5724 5726 5726 5725 5724 5723 5721 5714 5701 5694 5687 5682 5678 5674 5672 5671 5668 5669 5671 5672 5674 5678 5683 5686 5687 5692 5695 5698 5700 5702 5704 5707
5714 5713 5712 5713 5715 5717 5719 5721 5725 5725 5726 5727 5729 5733 5732 5732 5730 5729 5727 5720 5709 5692 5684 5677 5673 5668 5664 5660 5659 5656 5656 5658 5662 5666 5667 5672 5678 5680 5683 5687 5689 5692 5696 5698 5700
5732 5730 5728 5728 5728 5728 5729 5731 5734 5736 5735 5738 5739 5738 5736 5735 5732 5728 5723 5716 5705 5690 5679 5673 5669 5662 5656 5650 5647 5646 5645 5646 5652 5656 5659 5665 5669 5674 5676 5679 5683 5685 5690 5691 5693
5755 5747 5744 5743 5740 5737 5737 5741 5741 5743 5743 5741 5740 5739 5738 5735 5732 5727 5721 5713 5701 5688 5678 5672 5666 5657 5647 5640 5636 5635 5634 5637 5640 5645 5654 5658 5663 5667 5671 5675 5677 5681 5684 5685 5688
5767 5764 5760 5754 5754 5753 5749 5747 5745 5743 5745 5744 5743 5742 5740 5736 5732 5726 5718 5709 5699 5687 5676 5669 5662 5652 5642 5633 5629 5626 5625 5627 5632 5638 5648 5652 5658 5662 5668 5670 5673 5676 5679 5680 5680
5776 5773 5770 5768 5765 5761 5759 5757 5755 5752 5748 5747 5744 5742 5739 5735 5731 5725 5717 5709 5698 5687 5676 5667 5660 5651 5641 5631 5624 5621 5622 5624 5626 5633 5639 5647 5654 5659 5664 5667 5670 5672 5673 5673 5671
5782 5779 5776 5774 5771 5767 5765 5763 5759 5757 5754 5752 5747 5743 5738 5735 5730 5724 5717 5708 5698 5689 5678 5668 5660 5651 5643 5634 5625 5621 5622 5623 5624 5631 5640 5646 5653 5659 5662 5664 5667 5668 5668 5667 5665
5788 5784 5781 5778 5776 5773 5769 5766 5764 5762 5757 5754 5750 5745 5740 5734 5729 5723 5717 5710 5701 5691 5681 5671 5660 5654 5647 5639 5634 5628 5627 5627 5629 5636 5642 5648 5653 5657 5660 5663 5664 5663 5662 5661 5658
5791 5788 5784 5781 5779 5776 5772 5770 5767 5762 5759 5756 5751 5746 5741 5736 5730 5724 5718 5712 5704 5697 5687 5678 5669 5659 5653 5649 5643 5639 5635 5637 5641 5644 5647 5649 5653 5657 5659 5660 5660 5659 5659 5657 5654
5793 5790 5786 5782 5780 5777 5774 5771 5767 5763 5759 5756 5751 5747 5742 5737 5732 5725 5719 5714 5707 5700 5693 5686 5678 5671 5661 5656 5653 5649 5646 5645 5647 5651 5653 5655 5657 5659 5659 5658 5658 5658 5658 5656 5652
5793 5791 5787 5784 5780 5777 5775 5772 5768 5764 5761 5757 5752 5748 5745 5740 5733 5727 5721 5715 5709 5704 5700 5694 5687 5680 5673 5666 5662 5658 5657 5655 5654 5655 5656 5657 5658 5657 5656 5657 5657 5657 5657 5654 5650
5792 5788 5786 5783 5780 5777 5774 5771 5768 5764 5760 5757 5753 5749 5744 5740 5736 5730 5724 5719 5712 5707 5703 5699 5695 5689 5684 5679 5674 5669 5665 5664 5662 5661 5660 5659 5658 5658 5656 5656 5655 5655 5654 5652 5649
5791 5787 5785 5782 5779 5777 5773 5770 5766 5763 5759 5756 5752 5748 5745 5740 5736 5732 5727 5722 5716 5712 5706 5703 5700 5697 5692 5686 5683 5679 5674 5670 5668 5666 5664 5661 5659 5655 5654 5653 5652 5652 5651 5650 5648
5787 5787 5783 5780 5779 5775 5773 5769 5765 5762 5759 5755 5751 5748 5744 5740 5736 5732 5729 5724 5720 5715 5710 5706 5703 5699 5697 5693 5688 5684 5681 5677 5673 5671 5666 5662 5659 5652 5647 5645 5646 5647 5648 5648 5646
5784 5782 5780 5778 5776 5773 5770 5768 5765 5761 5758 5754 5751 5747 5743 5740 5736 5731 5729 5725 5721 5717 5713 5708 5705 5702 5699 5696 5692 5688 5684 5681 5677 5673 5668 5663 5659 5650 5641 5634 5636 5641 5644 5646 5645
5779 5777 5776 5774 5772 5770 5767 5764 5762 5759 5756 5752 5749 5746 5742 5738 5734 5731 5727 5724 5721 5717 5713 5709 5705 5701 5699 5697 5694 5691 5687 5683 5680 5676 5672 5666 5659 5651 5642 5630 5628 5636 5641 5643 5643
5775 5773 5771 5770 5767 5764 5763 5760 5757 5755 5753 5750 5747 5743 5741 5737 5734 5730 5726 5723 5719 5716 5713 5709 5705 5701 5698 5696 5693 5691 5688 5684 5681 5678 5675 5671 5664 5658 5649 5638 5634 5642 5644 5644 5642
5770 5767 5765 5764 5761 5760 5757 5756 5753 5751 5748 5745 5743 5740 5737 5734 5731 5728 5724 5720 5719 5715 5712 5709 5704 5700 5696 5694 5692 5689 5687 5684 5681 5678 5675 5673 5668 5663 5658 5653 5648 5646 5644 5642 5643
5762 5761 5759 5759 5757 5754 5753 5751 5748 5746 5745 5740 5738 5735 5732 5730 5728 5725 5722 5718 5716 5714 5710 5707 5703 5699 5695 5692 5690 5689 5685 5683 5681 5677 5675 5672 5671 5668 5663 5659 5655 5650 5646 5641 5638